Simultaneous Nadir Overpasses (SNOs) Predictions

Prediction of SNOs between GOES-15 and METOP-A Satellite Orbit:

Table of predicted SNOs for the next 14.0 days since TLE Epoch: 5/23/2014
Index Date Time (GOES-15) GOES-15 Lat,Lon METOP-A Lat,Lon Distance(km) Time Diff (sec)
1 05/24/2014 06:16:06 0.08,-134.89 0.68,-132.18 308.64 80
2 05/25/2014 18:37:38 -0.07,-134.95 0.33,-136.74 203.65 80
3 05/26/2014 18:14:19 -0.08,-134.99 -0.78,-131.74 369.83 80
4 05/28/2014 06:35:59 0.07,-135.04 -0.24,-136.33 147.53 80
5 05/29/2014 06:12:41 0.08,-135.08 0.92,-131.35 425.44 80
6 05/30/2014 18:34:12 -0.08,-135.13 0.12,-135.90 87.90 80
7 05/31/2014 18:10:53 -0.09,-135.17 -1.05,-130.91 484.93 80
8 06/02/2014 06:32:34 0.09,-135.21 0.03,-135.50 33.19 80
9 06/04/2014 18:28:07
